Zurück zum Katalog

NOAA 16 DEB

AktivPO
NORAD 42379·DEBRIS·🇺🇸 United States

Gestartet Sep 21, 2000 von Vandenberg Space Force Base

Loading…

Nächste Überflüge (nächste 24 Stunden)

TLE

AktuellSource: Space-Track

Epoche: Sep 14, 2026, 01:43 UTC

1 42379U 00055RX  26257.07196368  .00017859  00000-0  21154-2 0  9992
2 42379  98.9144 121.9045 0017714 163.0974 197.0831 14.84519180549417

Verfolge NOAA 16 DEB in Echtzeit mit AllMySat

Download on the App Store